Simultaneous Nadir Overpasses (SNOs) Predictions

Prediction of SNOs between FY3D and AQUA Satellite Orbit:

Table of predicted SNOs for the next 14.0 days since TLE Epoch: 4/20/2024
Index Date (FY3D) Time (FY3D) Lat,Lon (FY3D) SZA (FY3D ) Date (AQUA) Time (AQUA) Lat,Lon (AQUA) SZA (AQUA ) Distance(km) Time Diff (sec)
1 04/22/2024 15:09:56 79.27, -66.04 67.27 04/22/2024 15:10:10 79.28, -66.15 67.28 2.42 14
2 04/22/2024 16:00:35 -79.08, 102.74 113.01 04/22/2024 15:59:27 -79.08, 102.80 113.00 1.27 68
3 04/25/2024 03:13:45 -79.45, -68.37 113.31 04/25/2024 03:14:27 -79.44, -68.28 113.33 1.94 42
4 04/25/2024 04:04:21 79.11, 101.63 66.21 04/25/2024 04:03:41 79.11, 101.57 66.22 1.22 40
5 04/27/2024 15:17:30 79.46, -69.36 65.91 04/27/2024 15:18:37 79.46, -69.39 65.89 0.70 67
6 04/27/2024 16:08:09 -79.27, 99.53 114.38 04/27/2024 16:07:54 -79.27, 99.59 114.39 1.45 15
7 04/30/2024 04:11:53 79.26, 98.69 64.83 04/30/2024 04:12:00 79.27, 98.60 64.84 2.05 7
8 04/30/2024 05:01:47 -77.34, -82.45 117.57 04/30/2024 05:00:33 -77.19, -83.16 117.70 24.49 74
9 05/02/2024 16:15:38 -79.33, 97.24 115.83 05/02/2024 16:16:04 -79.34, 97.13 115.82 2.37 26



Historial Predications of SNOs between FY3D and AQUA
